Location: Ahausen
(50.4985°N, 8.2722°E)
Time: 02:13:09
(UTC+00:00)

ITUPSAT 1 - Pass Details

Date: 01 July 2022
Orbit: 701 x 711 km, 98.6° (Epoch: 16 August)

Event Time Altitude Azimuth Distance (km) Brightness Sun altitude
Rises 20:50:11 0° 9° (N) 3,113 ? -8.3°
Reaches altitude 10° 20:52:33 10° 2° (N) 2,191 ? -8.6°
Maximum altitude 20:57:00 39° 295° (WNW) 1,064 ? -9.0°
Drops below altitude 10° 21:01:25 10° 227° (SW) 2,182 ? -9.4°
Sets 21:03:47 0° 220° (SW) 3,098 ? -9.6°
